星链-36930(STARLINK-36930)

导读

STARLINK-36930(NORAD编号68018)是SpaceX星链(Starlink)卫星互联网星座中的一颗低轨通信卫星,属于星链星座扩容部署的一部分,用于提供全球覆盖的宽带互联网服务。 作为低轨卫星,它运行在近地轨道,依托星链星座的相控阵天线、激光星间链路技术,可实现低延迟、高带宽的全球通信服务,支撑地面用户终端与信关站的多用户连接。在SpaceX 2026年整体降轨计划中,该卫星所属星座批次将逐步降低轨道高度,以提升太空运行安全性,减少空间碎片风险。

Basic Information
目录编号:
68018
目录名称:
STARLINK-36930
国际标识:
2026-040D
轨道中心:
EARTH
卫星名称:
星链-36930
卫星全名:
星链-36930(STARLINK-36930)
卫星状态:
在轨 (已飞行188 天)
发射日期:
2026-03-01 UTC
国别 :
美国 (US)
星等 :
--
Orbit Information
数据来源 国际轨道数据
星历时间: 2026-09-04T21:57:45+0800
23小时前
查看轨道信息
半长轴: 6843.698km
偏心率: 0.0002979
轨道倾角: 97.285°
近地点辐角 88.210°
升交点赤经 195.072°
平近点角 271.948°
近地点: 463.522km
远地点: 467.6km
周期: 93.907分钟
每日圈数: 15.334391
Detailed Information
固有亮度:
5
最大亮度:
2.5
卫星平台:
Starlink V1.0
覆盖范围:
全球
运营商:
太空探索技术公司
运营商所在国:
美国
制造商(研发单位):
太空探索技术公司
制造商所在国:
美国
使用方式:
暂无
Satellite Introduction
Starlink 计划是 SpaceX 推出的全球卫星互联网项目,通过发射低轨道卫星,为全球尤其是偏远地区提供高速、低延迟的互联网服务。自 2019 年起,Starlink 已部署数千颗卫星,旨在缩小全球数字鸿沟,推动互联网普及。该项目还为军事、航空等行业提供通信支持,带来广泛经济效益。
2D Orbit Map
3D Orbit Map
Orbit Altitude Analysis Chart
Orbit Inclination Analysis Chart
Orbit Comprehensive Analysis Chart
View Comprehensive Chart
Conjunction Data List
Event ID Objects TCA Miss Dist (km) Collision Risk Probability Collision Risk Index (CRI) Action
CDM_260907-133806-801806-942821
2026-09-07T
13:38:25+0000
0.857 km
远距离
3.546813E-5 中风险 0.66
CDM_260905-234106-403806-801821
2026-09-05T
23:41:04+0000
1.262 km
极远距离
1.227581E-5 中风险 0.57
CDM_260907-120406-801806-942821
2026-09-07T
12:04:27+0000
1.592 km
极远距离
4.347085E-6 低风险 0.48
CDM_260907-101905-325306-801821
2026-09-07T
10:19:04+0000
1.915 km
极远距离
2.894762E-6 低风险 0.44
CDM_260906-045705-231106-801821
2026-09-06T
04:57:20+0000
2.282 km
极远距离
2.063407E-6 低风险 0.41
CDM_260906-054205-729006-801821
2026-09-06T
05:42:32+0000
2.170 km
极远距离
1.989231E-6 低风险 0.41
CDM_260905-052405-249006-801822
2026-09-05T
05:24:11+0000
2.386 km
极远距离
1.801293E-6 低风险 0.4
CDM_260905-211306-801806-959921
2026-09-05T
21:13:59+0000
2.640 km
极远距离
1.593256E-6 低风险 0.39
CDM_260907-103006-801806-942821
2026-09-07T
10:30:29+0000
2.621 km
极远距离
1.31032E-6 低风险 0.37
CDM_260907-172904-742306-801823
OBJECT L (47423)
2026-09-07T
17:29:26+0000
2.844 km
极远距离
1.232103E-6 低风险 0.37